Flag Weather past 2 weeks in Masaya, Nicaragua

Now
77 °F

Passing clouds.


Feels Like: 78 °F
Forecast: 73 / 87 °F
Wind: No wind

Location: Managua A. C. Sandino

Current Time: Nov 23, 2014 at 10:25:21 PM

Latest Report: Nov 23, 2014 at 10:00 PM


Visibility: N/A

Pressure: 29.83 "Hg

Humidity: 89%

Dew point: 73 °F

Location of MasayaLocation

Historic Weather in Masaya — Graph

°F

Masaya temperature yesterday

Maximum temperature yesterday: 88 °F (at 12:00 PM)
Minimum temperature yesterday: 73 °F (at 5:00 AM)
Average temperature yesterday: 79 °F

Past Weeks' High & Low Weather Summary

 TemperatureHumidityPressure
High91 °F (Nov 14, 1:00 PM)100% (Nov 9, 3:00 AM)29.95 "Hg (Nov 9, 3:00 AM)
Low72 °F (Nov 9, 3:00 AM)44% (Nov 14, 2:00 PM)29.71 "Hg (Nov 23, 3:00 PM)
Average80 °F78%29.86 "Hg
* Reported Nov 8 9:00 PM — Nov 23 9:00 PM, Masaya, Weather by CustomWeather, © 2014

Note: Actual official high and low records may vary slightly from our data, if they occured in-between our weather recording intervals... More about our weather records

Advertising

Masaya weather history for previous 24 hours

 ConditionsComfort  
Time TempWeatherWind HumidityBarometerVisibility
9:00 PM
Nov 23
77 °FPassing clouds.7 mph89%29.83 "HgN/A
8:00 PM77 °FPassing clouds.5 mph94%29.83 "HgN/A
7:00 PM79 °FPassing clouds.5 mph89%29.80 "HgN/A
6:00 PM79 °FPassing clouds.7 mph89%29.74 "HgN/A
5:00 PM81 °FDrizzle. Partly sunny.7 mph84%29.71 "Hg6 mi
4:00 PM84 °FScattered clouds.5 mph74%29.71 "HgN/A
3:00 PM84 °FScattered clouds.7 mph79%29.71 "HgN/A
2:00 PM84 °FScattered clouds.5 mph74%29.74 "Hg6 mi
1:00 PM88 °FScattered clouds.12 mph62%29.77 "HgN/A
12:00 PM86 °FScattered clouds.9 mph70%29.80 "HgN/A
11:00 AM86 °FPassing clouds.9 mph70%29.83 "HgN/A
10:00 AM84 °FPassing clouds.7 mph74%29.83 "HgN/A
9:00 AM82 °FPassing clouds.5 mph79%29.86 "HgN/A
8:00 AM79 °FPassing clouds.14 mph84%29.83 "HgN/A
7:00 AM75 °FPassing clouds.5 mph89%29.83 "HgN/A
6:00 AM73 °FScattered clouds.5 mph89%29.83 "HgN/A
5:00 AM73 °FPassing clouds.5 mph94%29.80 "HgN/A
2:00 AM73 °FPassing clouds.No wind94%29.83 "HgN/A
12:00 AM73 °FPassing clouds.5 mph94%29.83 "HgN/A
11:00 PM
Nov 22
75 °FPassing clouds.5 mph89%29.86 "HgN/A
10:00 PM75 °FPassing clouds.No wind89%29.86 "HgN/A
Weather by CustomWeather, © 2014

See weather overviewHow to use our weather pages